Location: M.A.R.S.Observatory
(35.4031°N, 81.5481°W)
Time: 09:34:41
(UTC-04:00)

SL-8 R/B - Visible Passes

Search period start: 26 June 2016 00:00
Search period end: 06 July 2016 00:00
Orbit: 657 x 668 km, 48.4° (Epoch: 24 June)

Date Brightness Start Highest point End Pass type
(mag) Time Alt. Az. Time Alt. Az. Time Alt. Az.
29 Jun 6.0 05:08:53 10° SSE 05:11:38 15° SE 05:14:23 10° E visible
30 Jun 4.6 05:37:58 10° SSW 05:42:26 41° SE 05:46:53 10° ENE visible
01 Jul 5.8 04:29:02 12° SSE 04:31:25 17° SE 04:34:25 10° E visible
02 Jul 4.4 04:58:57 17° SSW 05:02:14 44° SE 05:06:46 10° ENE visible
03 Jul 5.5 03:50:48 18° SE 03:51:12 18° SE 03:54:26 10° E visible
03 Jul 3.8 05:28:47 11° WSW 05:33:19 75° NW 05:38:06 10° NE visible
04 Jul 4.2 04:20:34 35° S 04:22:02 48° SE 04:26:38 10° ENE visible
05 Jul 5.7 03:12:18 18° ESE 03:12:18 18° ESE 03:14:25 10° E visible
05 Jul 3.8 04:50:17 24° WSW 04:53:08 70° NW 04:57:55 10° NE visible
